Weather in Izumo

Japan     35°19′58″N   132°45′59″E
temp.,
°C
wind,
m/s
gust,
m/s
humid.,
%
clouds,
%
prec.,
mm/h
press.,
hPa
HPBL,
m
31 july, sat
sat3100:00+21sse1190100 0.0 100313
03:00+20sse1183100 0.0 100314
06:00+21s118365 0.0 100418
09:00+28wnw116244 0.0 1003659
12:00+30nw325292 0.0 10031402
15:00+30nw325490 0.0 10011013
18:00+26n127411 0.0 1002171
21:00+22ese119245 0.0 100313
1 august, sun
sun100:00+21sse119128 0.0 100315
03:00+22sse118260 0.0 100215
06:00+22sse11785 0.0 100317
09:00+29wsw015515 0.0 1003661
12:00+32nw334980 0.0 10011793
15:00+29nnw3362100 0.1 1002812
18:00+26nnw1182100 0.2 100262
21:00+23ese1189100 0.3 100417
2 august, mon
mon200:00+23sse229071 0.0 100426
03:00+23sse228096 0.0 100437
06:00+23sse228395 0.0 100436
09:00+27sse136899 0.0 1005448
12:00+33ssw134761 0.0 10042015
15:00+26ne238237 0.2 1005165
18:00+27ne118391 1.0 100558
21:00+23se229196 1.4 100732
3 august, tue
tue300:00+22sse228883 0.0 100728
03:00+22sse22885 0.0 100731
06:00+22sse22904 0.0 100845
09:00+29sse24635 0.0 1008879
12:00+32se335361 0.0 10081800
15:00+31se246288 0.2 1007972
18:00+28se247887 0.9 1008194
21:00+24se2485100 1.0 1009105
4 august, wed
wed400:00+23se228793 0.0 100941
03:00+23sse2488100 0.0 100896
06:00+23sse2288100 0.0 100938
09:00+29sse136088 0.0 1010707
12:00+34wsw124773 0.0 10081949
15:00+29ene237443 0.2 1007295
18:00+27ene118587 1.1 100730
21:00+24se229210 1.4 100839